This is the latest recevied weather packets stored in our database for station/object EB1TK-13. If no packets are shown the sender has not sent any weather packets the latest 1 day(s).
| Time | Temp. | Humidity | Pressure | Rain* | Wind** | Luminosity | Snow |
|---|---|---|---|---|---|---|---|
| 1836274689 | 19.44° C | 97% | 1015.4 hPa | 0 mm | 0.45 m/s, 266° | - | - |
| 1836274541 | 19.44° C | 98% | 1015.3 hPa | 0 mm | 0 m/s | - | - |
| 1836274089 | 19.44° C | 97% | 1015.4 hPa | 0 mm | 0.45 m/s, 264° | - | - |
| 1778035335 | 11.11° C | 91% | 1014.1 hPa | 0.51 mm | 2.68 m/s, 231° | - | - |
| 1778034736 | 11.11° C | 91% | 1014.1 hPa | 0.76 mm | 2.68 m/s, 228° | - | - |
| 1778034135 | 11.11° C | 91% | 1014.2 hPa | 0.76 mm | 3.13 m/s, 235° | - | - |
| 1778033535 | 11.67° C | 91% | 1014.3 hPa | 0.76 mm | 3.13 m/s, 233° | - | - |
| 1778032935 | 11.67° C | 92% | 1014.3 hPa | 0.76 mm | 2.68 m/s, 236° | - | - |
| 1778032335 | 11.67° C | 91% | 1014.4 hPa | 0.76 mm | 2.68 m/s, 236° | - | - |
| 1778031735 | 11.67° C | 90% | 1014.5 hPa | 0.51 mm | 2.24 m/s, 246° | - | - |
| 1778031135 | 11.67° C | 89% | 1014.5 hPa | 0 mm | 2.68 m/s, 247° | - | - |
| 1778030536 | 11.67° C | 89% | 1014.5 hPa | 0 mm | 2.24 m/s, 229° | - | - |
| 1778029936 | 11.67° C | 90% | 1014.6 hPa | 0 mm | 3.13 m/s, 247° | - | - |
| 1778029337 | 11.67° C | 90% | 1014.6 hPa | 0 mm | 3.13 m/s, 233° | - | - |
| 1778028737 | 11.67° C | 90% | 1014.8 hPa | 0 mm | 2.68 m/s, 229° | - | - |
| 1778028135 | 11.11° C | 90% | 1014.9 hPa | 0.25 mm | 2.68 m/s, 249° | - | - |
| 1778027535 | 11.11° C | 91% | 1015 hPa | 0.25 mm | 2.68 m/s, 243° | - | - |
| 1778026936 | 11.67° C | 90% | 1015.1 hPa | 0.25 mm | 2.68 m/s, 244° | - | - |
| 1778026336 | 11.67° C | 89% | 1015 hPa | 0.25 mm | 3.58 m/s, 232° | - | - |
| 1778025736 | 12.22° C | 89% | 1015.1 hPa | 0.25 mm | 4.47 m/s, 238° | - | - |
| 1778025137 | 11.67° C | 90% | 1015.3 hPa | 0.25 mm | 2.68 m/s, 245° | - | - |
| 1778024537 | 11.67° C | 90% | 1015.2 hPa | 0 mm | 2.68 m/s, 240° | - | - |
| 1778023935 | 11.67° C | 90% | 1015.3 hPa | 0 mm | 2.24 m/s, 243° | - | - |
| 1778023340 | 11.67° C | 90% | 1015.3 hPa | 0 mm | 2.24 m/s, 247° | - | - |
| 1778022736 | 11.67° C | 90% | 1015.2 hPa | 0 mm | 2.68 m/s, 238° | - | - |
* Rain latest hour (hover to see other rain measurements)
** Current wind speed in m/s (hover to see current wind gust speed)